Alturas, CA

5:46 AM PST on December 13, 2019 (GMT -0800)
Alturas Municipal

Weather History for KAAT - October, 2019

Change the Weather History Date:

Monday, October 14, 2019

  Actual Average Record
Temperature  
Mean Temperature 46 °F 48 °F  
Max Temperature 69 °F 66 °F 88 °F (2015)
Min Temperature 23 °F 29 °F 13 °F (1960)
Degree Days  
Heating Degree Days 20 18  
Month to date heating degree days 217  
Since 1 July heating degree days 594  
Cooling Degree Days 0 0  
Month to date cooling degree days 0  
Year to date cooling degree days 156  
Moisture  
Dew Point 22 °F    
Average Humidity 49    
Maximum Humidity 78    
Minimum Humidity 17    
Precipitation  
Precipitation 0.00 in 0.04 in 0.94 in (1962)
Month to date precipitation 0.32  
Year to date precipitation 9.98  
Sea Level Pressure  
Sea Level Pressure 30.05 in    
Wind  
Wind Speed 1 mph ()    
Max Wind Speed 9 mph    
Max Gust Speed -    
Visibility 9.7 miles    
Events      
T = Trace of Precipitation, MM = Missing Value Source: Averaged Metar Reports

Daily Weather History Graph

Daily Weather History Graph

Search for Another Location

Airport or City:

Astronomy

Oct. 14, 2019 Rise Set
Actual Time 7:12 AM PDT 6:22 PM PDT
Civil Twilight 6:45 AM PDT 6:50 PM PDT
Nautical Twilight 6:12 AM PDT 7:22 PM PDT
Astronomical Twilight 5:40 AM PDT 7:54 PM PDT
Moon 7:15 PM PDT (10/14) 7:49 AM PDT (10/14)
Length of Visible Light 12h 05m
Length of Day
11h 09m
Full, 99% of the Moon is Illuminated
Oct 14
Full
Oct 21
Last Quarter
Oct 27
New
Nov 4
First Quarter
Nov 12
Full

Hourly Weather History & Observations

Time (PDT) Temp. Dew Point Humidity Pressure Visibility Wind Dir Wind Speed Gust Speed Precip Events Conditions
12:55 AM 30.9 °F 19.9 °F 64% 29.99 in 5.0 mi Calm Calm - N/A   Haze
1:55 AM 26.1 °F 18.0 °F 71% 30.00 in 9.0 mi Calm Calm - N/A   Clear
2:55 AM 28.9 °F 19.9 °F 69% 30.00 in 10.0 mi Calm Calm - N/A   Clear
3:55 AM 25.0 °F 17.1 °F 72% 30.01 in 10.0 mi Calm Calm - N/A   Clear
4:55 AM 25.0 °F 19.0 °F 78% 30.02 in 10.0 mi Calm Calm - N/A   Clear
5:55 AM 26.1 °F 19.0 °F 75% 30.03 in 10.0 mi Calm Calm - N/A   Clear
6:55 AM 23.0 °F 17.1 °F 78% 30.08 in 10.0 mi Calm Calm - N/A   Clear
7:55 AM 24.1 °F 18.0 °F 77% 30.09 in 10.0 mi Calm Calm - N/A   Clear
8:55 AM 35.1 °F 23.0 °F 61% 30.09 in 10.0 mi Calm Calm - N/A   Clear
9:55 AM 44.1 °F 21.9 °F 42% 30.08 in 10.0 mi Calm Calm - N/A   Clear
10:55 AM 51.1 °F 23.0 °F 33% 30.07 in 10.0 mi Calm Calm - N/A   Clear
11:55 AM 59.0 °F 24.1 °F 26% 30.06 in 10.0 mi Variable 3.5 mph - N/A   Clear
12:55 PM 63.0 °F 25.0 °F 24% 30.02 in 10.0 mi Calm Calm - N/A   Clear
1:55 PM 66.0 °F 25.0 °F 21% 30.01 in 10.0 mi West 5.8 mph - N/A   Clear
2:55 PM 66.9 °F 25.0 °F 21% 30.00 in 10.0 mi Calm Calm - N/A   Clear
3:55 PM 68.0 °F 25.0 °F 20% 30.01 in 10.0 mi SW 8.1 mph - N/A   Clear
4:55 PM 68.0 °F 21.0 °F 17% 30.01 in 10.0 mi WNW 9.2 mph - N/A   Clear
5:55 PM 64.0 °F 21.9 °F 20% 30.02 in 10.0 mi West 6.9 mph - N/A   Clear
6:55 PM 57.0 °F 19.9 °F 24% 30.05 in 10.0 mi WSW 4.6 mph - N/A   Clear
8:55 PM 42.1 °F 24.1 °F 49% 30.11 in 10.0 mi Calm Calm - N/A   Clear
9:55 PM 37.9 °F 25.0 °F 60% 30.12 in 10.0 mi Calm Calm - N/A   Clear
10:55 PM 36.0 °F 25.0 °F 64% 30.12 in 10.0 mi Calm Calm - N/A   Clear
11:55 PM 32.0 °F 21.9 °F 66% 30.13 in 10.0 mi Calm Calm - N/A   Clear